Location: Sevilla
(37.3933°N, 5.9839°W)
Time: 04:17:22
(UTC+02:00)

Transit 2A - Pass Details

Date: 25 June 2024
Orbit: 591 x 960 km, 66.7° (Epoch: 15 July)

Event Time Altitude Azimuth Distance (km) Brightness Sun altitude
Rises 02:34:17 0° 326° (NW) 3,584 10.2 -29.2°
Reaches altitude 10° 02:36:52 10° 321° (NW) 2,665 9.3 -29.2°
Enters shadow 02:42:11 47° 270° (W) 1,243 6.9 -29.1°
Maximum altitude 02:42:53 50° 249° (WSW) 1,210 - -29.1°
Drops below altitude 10° 02:48:56 10° 175° (S) 2,666 - -29.0°
Sets 02:51:31 0° 170° (S) 3,586 - -28.9°
